Location: Bakov nad Jizerou
(50.4784°N, 14.9394°E)
Time: 17:35:20
(UTC+00:00)

Cosmos 2322 - Pass Details

Date: 25 October 2021
Orbit: 841 x 854 km, 71.0° (Epoch: 04 December)

Event Time Altitude Azimuth Distance (km) Brightness Sun altitude
Rises 18:31:19 0° 201° (SSW) 3,410 7.0 -26.4°
Reaches altitude 10° 18:33:46 10° 200° (SSW) 2,478 6.2 -26.8°
Enters shadow 18:38:00 51° 187° (S) 1,063 4.1 -27.5°
